Radiation Dose at Monitoring Post of Fukushima Daini Nuclear Power Station
Date,Time,MP-1(microSv/h),MP-2(microSv/h),MP-3(microSv/h),MP-4(microSv/h),MP-5(microSv/h),MP-6(microSv/h),MP-7(microSv/h),Wind Direction,Wind Velocity(m/s),Rain
2016/10/29,00:00,0.408,0.251,0.420,0.384,0.371,0.205,0.177,north-northwest,10.2,Yes
2016/10/29,00:10,0.405,0.250,0.418,0.381,0.367,0.204,0.178,north,11.0,Yes
2016/10/29,00:20,0.406,0.250,0.419,0.381,0.369,0.204,0.178,north-northwest,10.9,Yes
2016/10/29,00:30,0.405,0.249,0.419,0.381,0.369,0.204,0.177,north-northwest,10.2,Yes
2016/10/29,00:40,0.403,0.248,0.418,0.379,0.367,0.202,0.176,north-northwest,9.9,Yes
2016/10/29,00:50,0.405,0.248,0.418,0.381,0.370,0.201,0.177,north-northwest,10.5,Yes
2016/10/29,01:00,0.401,0.246,0.415,0.380,0.367,0.202,0.176,north-northwest,11.0,Yes
2016/10/29,01:10,0.403,0.247,0.417,0.380,0.366,0.201,0.176,north,12.3,Yes
2016/10/29,01:20,0.402,0.246,0.414,0.381,0.370,0.201,0.175,north-northwest,11.1,Yes
2016/10/29,01:30,0.400,0.247,0.415,0.378,0.367,0.201,0.174,north,11.5,Yes
2016/10/29,01:40,0.400,0.246,0.418,0.381,0.368,0.201,0.173,north-northwest,11.5,No
2016/10/29,01:50,0.400,0.244,0.414,0.378,0.366,0.199,0.173,north,11.5,No
2016/10/29,02:00,0.399,0.244,0.417,0.379,0.367,0.199,0.173,north,12.8,Yes
2016/10/29,02:10,0.401,0.243,0.415,0.380,0.368,0.198,0.171,north,13.2,No
2016/10/29,02:20,0.400,0.243,0.413,0.376,0.364,0.197,0.169,north,12.1,No
2016/10/29,02:30,0.399,0.242,0.416,0.378,0.363,0.196,0.168,north-northwest,11.7,No
2016/10/29,02:40,0.398,0.241,0.412,0.377,0.365,0.194,0.167,north,12.2,No
2016/10/29,02:50,0.398,0.240,0.413,0.377,0.362,0.194,0.167,north-northwest,10.7,No
2016/10/29,03:00,0.396,0.240,0.412,0.377,0.361,0.193,0.166,north,11.5,No
2016/10/29,03:10,0.398,0.238,0.411,0.373,0.361,0.192,0.164,north,11.2,No
2016/10/29,03:20,0.397,0.239,0.413,0.378,0.360,0.192,0.166,north,12.3,No
2016/10/29,03:30,0.396,0.239,0.411,0.373,0.363,0.190,0.165,north,11.6,No
2016/10/29,03:40,0.397,0.239,0.412,0.377,0.361,0.192,0.164,north,12.9,No
2016/10/29,03:50,0.398,0.238,0.412,0.376,0.360,0.192,0.165,north,12.0,No
2016/10/29,04:00,0.397,0.239,0.412,0.376,0.362,0.191,0.165,north,12.3,No
2016/10/29,04:10,0.398,0.238,0.414,0.378,0.360,0.191,0.165,north,11.7,No
2016/10/29,04:20,0.398,0.238,0.412,0.375,0.359,0.192,0.164,north,9.5,No
2016/10/29,04:30,0.398,0.238,0.412,0.376,0.361,0.191,0.165,north,10.4,No
2016/10/29,04:40,0.396,0.238,0.411,0.375,0.360,0.190,0.163,north,12.3,No
2016/10/29,04:50,0.396,0.238,0.410,0.374,0.361,0.191,0.163,north,10.7,No
2016/10/29,05:00,0.396,0.238,0.412,0.378,0.360,0.191,0.164,north,9.1,No
2016/10/29,05:10,0.399,0.238,0.411,0.374,0.358,0.192,0.164,north,6.3,No
2016/10/29,05:20,0.398,0.238,0.412,0.376,0.360,0.190,0.164,north,8.7,No
2016/10/29,05:30,0.397,0.238,0.413,0.376,0.361,0.191,0.165,north-northwest,9.5,No
2016/10/29,05:40,0.399,0.238,0.412,0.374,0.361,0.191,0.165,northwest,9.2,No
2016/10/29,05:50,0.398,0.237,0.413,0.377,0.360,0.191,0.164,north-northwest,13.2,No
2016/10/29,06:00,0.398,0.238,0.411,0.375,0.360,0.191,0.163,north-northwest,12.8,No
2016/10/29,06:10,0.398,0.239,0.412,0.377,0.359,0.191,0.164,north-northwest,10.9,No
2016/10/29,06:20,0.396,0.238,0.414,0.376,0.361,0.191,0.165,north-northwest,10.7,No
2016/10/29,06:30,0.399,0.239,0.411,0.375,0.359,0.191,0.164,north-northwest,9.2,No
2016/10/29,06:40,0.400,0.238,0.412,0.377,0.361,0.191,0.164,north-northwest,10.1,No
2016/10/29,06:50,0.399,0.238,0.410,0.374,0.362,0.192,0.164,northwest,9.8,No
2016/10/29,07:00,0.401,0.238,0.413,0.378,0.361,0.192,0.164,north-northwest,9.6,No
2016/10/29,07:10,0.398,0.238,0.412,0.375,0.362,0.192,0.163,north-northwest,9.6,No
2016/10/29,07:20,0.399,0.238,0.412,0.376,0.361,0.192,0.164,northwest,9.0,No
2016/10/29,07:30,0.400,0.238,0.412,0.378,0.360,0.192,0.165,north-northwest,8.6,No
2016/10/29,07:40,0.400,0.237,0.413,0.376,0.361,0.193,0.164,north-northwest,9.5,No
2016/10/29,07:50,0.401,0.240,0.415,0.375,0.360,0.192,0.164,northwest,6.9,No
2016/10/29,08:00,0.397,0.238,0.412,0.374,0.362,0.193,0.165,north-northwest,4.2,No
2016/10/29,08:10,0.403,0.238,0.412,0.376,0.360,0.192,0.164,north,5.0,No
2016/10/29,08:20,0.400,0.240,0.415,0.375,0.361,0.192,0.164,north-northwest,5.5,No
2016/10/29,08:30,0.400,0.238,0.413,0.377,0.361,0.192,0.165,north-northwest,6.7,No
2016/10/29,08:40,0.398,0.239,0.414,0.376,0.359,0.194,0.165,north-northwest,8.2,No
2016/10/29,08:50,0.401,0.238,0.411,0.374,0.362,0.192,0.164,north,8.6,No
2016/10/29,09:00,0.399,0.239,0.416,0.377,0.359,0.193,0.166,northwest,8.6,No
2016/10/29,09:10,0.401,0.240,0.413,0.374,0.361,0.193,0.166,northwest,8.9,No
2016/10/29,09:20,0.398,0.237,0.414,0.378,0.360,0.192,0.164,north-northwest,9.2,No
2016/10/29,09:30,0.400,0.239,0.413,0.376,0.361,0.193,0.167,north-northwest,7.8,No
2016/10/29,09:40,0.398,0.239,0.416,0.376,0.361,0.192,0.166,north-northwest,6.3,No
2016/10/29,09:50,0.400,0.238,0.413,0.378,0.360,0.195,0.167,north,5.3,No
2016/10/29,10:00,0.400,0.239,0.415,0.377,0.363,0.193,0.166,north,4.1,No
2016/10/29,10:10,0.402,0.239,0.411,0.379,0.361,0.194,0.165,north,4.3,No
2016/10/29,10:20,0.401,0.241,0.415,0.376,0.362,0.193,0.165,north,1.9,No
2016/10/29,10:30,0.403,0.238,0.412,0.378,0.361,0.195,0.166,north-northeast,5.8,No
2016/10/29,10:40,0.401,0.239,0.415,0.377,0.362,0.193,0.165,north,6.9,No
2016/10/29,10:50,0.402,0.237,0.413,0.378,0.361,0.194,0.166,north-northeast,8.9,No
2016/10/29,11:00,0.401,0.239,0.415,0.377,0.361,0.193,0.166,north-northeast,11.0,No
2016/10/29,11:10,0.404,0.239,0.413,0.379,0.362,0.193,0.166,north-northeast,8.6,No
2016/10/29,11:20,0.402,0.240,0.416,0.377,0.361,0.194,0.167,north-northeast,8.6,No
2016/10/29,11:30,0.400,0.238,0.416,0.379,0.362,0.194,0.166,north-northeast,8.9,No
2016/10/29,11:40,0.403,0.239,0.415,0.378,0.360,0.194,0.167,north-northeast,7.8,No
2016/10/29,11:50,0.401,0.239,0.415,0.381,0.364,0.193,0.166,north-northeast,7.7,No
2016/10/29,12:00,0.404,0.240,0.416,0.378,0.363,0.194,0.167,north-northeast,9.0,No
2016/10/29,12:10,0.400,0.240,0.414,0.378,0.364,0.193,0.166,north-northeast,10.1,No
2016/10/29,12:20,0.404,0.239,0.415,0.378,0.361,0.196,0.166,north,6.9,No
2016/10/29,12:30,0.401,0.241,0.413,0.379,0.364,0.193,0.166,north-northwest,6.1,No
2016/10/29,12:40,0.404,0.239,0.416,0.377,0.359,0.195,0.166,north-northwest,8.2,No
2016/10/29,12:50,0.400,0.241,0.413,0.380,0.364,0.195,0.166,north-northwest,5.9,No
2016/10/29,13:00,0.404,0.240,0.414,0.375,0.362,0.194,0.166,northwest,4.1,No
2016/10/29,13:10,0.402,0.240,0.414,0.380,0.364,0.193,0.166,north-northwest,4.5,No
2016/10/29,13:20,0.402,0.239,0.418,0.377,0.361,0.193,0.167,northwest,3.5,No
2016/10/29,13:30,0.403,0.241,0.415,0.381,0.364,0.195,0.167,north-northwest,5.5,No
2016/10/29,13:40,0.403,0.238,0.417,0.378,0.361,0.194,0.167,north-northwest,5.9,No
2016/10/29,13:50,0.403,0.241,0.414,0.381,0.365,0.195,0.166,north-northwest,5.5,No
2016/10/29,14:00,0.401,0.240,0.416,0.379,0.362,0.194,0.167,north-northwest,6.5,No
2016/10/29,14:10,0.405,0.240,0.416,0.380,0.363,0.195,0.167,north-northwest,7.5,No
2016/10/29,14:20,0.403,0.240,0.414,0.379,0.363,0.195,0.166,north-northwest,7.4,No
2016/10/29,14:30,0.404,0.239,0.417,0.382,0.363,0.195,0.167,north-northwest,5.2,No
2016/10/29,14:40,0.403,0.241,0.415,0.381,0.364,0.195,0.166,north-northwest,4.4,No
2016/10/29,14:50,0.403,0.240,0.416,0.379,0.365,0.194,0.167,north-northwest,3.2,No
2016/10/29,15:00,0.406,0.241,0.417,0.380,0.362,0.195,0.167,north-northwest,2.5,No
2016/10/29,15:10,0.402,0.242,0.416,0.380,0.365,0.195,0.166,north-northwest,2.2,No
2016/10/29,15:20,0.404,0.240,0.416,0.381,0.362,0.194,0.166,north-northwest,1.8,No
2016/10/29,15:30,0.403,0.239,0.415,0.378,0.364,0.194,0.166,north-northwest,0.8,No
2016/10/29,15:40,0.403,0.240,0.418,0.380,0.363,0.195,0.167,west-northwest,1.3,No
2016/10/29,15:50,0.403,0.240,0.413,0.381,0.362,0.195,0.166,north-northwest,1.6,No
2016/10/29,16:00,0.404,0.238,0.414,0.379,0.363,0.194,0.167,northwest,2.2,No
2016/10/29,16:10,0.404,0.240,0.414,0.380,0.362,0.194,0.167,north-northwest,4.9,No
2016/10/29,16:20,0.405,0.241,0.414,0.379,0.366,0.195,0.166,north-northwest,7.0,No
2016/10/29,16:30,0.405,0.240,0.418,0.381,0.362,0.195,0.167,north-northwest,8.1,No
2016/10/29,16:40,0.405,0.239,0.415,0.379,0.364,0.195,0.166,north-northwest,5.4,No
2016/10/29,16:50,0.404,0.240,0.416,0.380,0.364,0.194,0.167,north-northwest,7.8,No
2016/10/29,17:00,0.406,0.239,0.419,0.380,0.363,0.194,0.167,north-northwest,8.2,No
2016/10/29,17:10,0.404,0.240,0.417,0.380,0.364,0.194,0.167,north-northwest,8.6,No
2016/10/29,17:20,0.404,0.240,0.420,0.382,0.364,0.195,0.168,north-northwest,6.7,No
2016/10/29,17:30,0.405,0.240,0.417,0.379,0.363,0.194,0.167,north-northwest,8.6,No
2016/10/29,17:40,0.404,0.240,0.416,0.380,0.367,0.194,0.167,north-northwest,8.7,No
2016/10/29,17:50,0.405,0.240,0.418,0.381,0.363,0.195,0.167,north-northwest,7.8,No
2016/10/29,18:00,0.407,0.239,0.417,0.378,0.363,0.193,0.168,north-northwest,8.4,No
2016/10/29,18:10,0.404,0.240,0.419,0.381,0.365,0.196,0.166,north-northwest,8.1,No
2016/10/29,18:20,0.403,0.241,0.417,0.379,0.363,0.195,0.167,north-northwest,8.9,No
2016/10/29,18:30,0.405,0.240,0.416,0.381,0.362,0.196,0.167,north-northwest,9.0,No
2016/10/29,18:40,0.404,0.240,0.418,0.381,0.364,0.195,0.167,north-northwest,7.5,No
2016/10/29,18:50,0.404,0.240,0.416,0.380,0.363,0.195,0.168,north-northwest,7.5,No
2016/10/29,19:00,0.408,0.241,0.416,0.382,0.360,0.196,0.167,north-northwest,8.1,No
2016/10/29,19:10,0.403,0.240,0.418,0.380,0.365,0.195,0.167,north,8.6,No
2016/10/29,19:20,0.403,0.241,0.416,0.381,0.364,0.195,0.167,north,8.6,No
2016/10/29,19:30,0.408,0.241,0.417,0.382,0.362,0.196,0.166,north,9.1,No
2016/10/29,19:40,0.404,0.240,0.417,0.378,0.365,0.196,0.167,north,8.9,No
2016/10/29,19:50,0.405,0.240,0.418,0.383,0.363,0.195,0.168,north,9.8,No
2016/10/29,20:00,0.406,0.239,0.419,0.381,0.361,0.195,0.167,north,8.9,No
2016/10/29,20:10,0.405,0.241,0.418,0.378,0.363,0.194,0.167,north,7.8,No
2016/10/29,20:20,0.406,0.240,0.416,0.381,0.363,0.195,0.168,north,7.4,No
2016/10/29,20:30,0.404,0.241,0.420,0.380,0.363,0.195,0.168,north,7.2,No
2016/10/29,20:40,0.404,0.240,0.416,0.381,0.363,0.195,0.167,north,7.8,No
2016/10/29,20:50,0.407,0.241,0.416,0.381,0.363,0.194,0.167,north,7.4,No
2016/10/29,21:00,0.406,0.240,0.417,0.379,0.362,0.196,0.167,north,7.5,No
2016/10/29,21:10,0.404,0.241,0.417,0.382,0.362,0.196,0.167,north-northeast,7.6,No
2016/10/29,21:20,0.405,0.240,0.417,0.380,0.366,0.195,0.168,north-northeast,7.3,No
2016/10/29,21:30,0.404,0.241,0.418,0.380,0.363,0.195,0.168,north,7.1,No
2016/10/29,21:40,0.404,0.239,0.417,0.382,0.363,0.195,0.167,north,6.7,No
2016/10/29,21:50,0.405,0.241,0.419,0.381,0.364,0.196,0.168,north,6.7,No
2016/10/29,22:00,0.405,0.240,0.418,0.382,0.362,0.196,0.167,north,7.0,No
2016/10/29,22:10,0.404,0.240,0.417,0.382,0.363,0.194,0.168,north,7.7,No
2016/10/29,22:20,0.405,0.240,0.419,0.381,0.363,0.196,0.167,north,6.9,No
2016/10/29,22:30,0.406,0.240,0.418,0.380,0.364,0.195,0.168,north,6.9,No
2016/10/29,22:40,0.405,0.240,0.417,0.382,0.362,0.194,0.167,north,6.1,No
2016/10/29,22:50,0.405,0.242,0.417,0.382,0.363,0.196,0.168,north,6.9,No
2016/10/29,23:00,0.406,0.240,0.418,0.381,0.365,0.196,0.168,north,7.1,No
2016/10/29,23:10,0.406,0.240,0.417,0.382,0.363,0.196,0.167,north,6.7,No
2016/10/29,23:20,0.407,0.239,0.420,0.382,0.364,0.195,0.168,north,7.2,No
2016/10/29,23:30,0.406,0.242,0.418,0.382,0.365,0.195,0.168,north,7.5,No
2016/10/29,23:40,0.408,0.241,0.418,0.385,0.364,0.195,0.167,north,7.0,No
2016/10/29,23:50,0.406,0.240,0.419,0.381,0.363,0.195,0.167,north,6.7,No
